contact:dominique.lefevre@mio.osupytheas.fr, maurice.libes@osupytheas.fr, didier.mallarino@osupytheas.fr
Project:EMSO http://www.emso-fr.org/EMSO-France
Depth: 2436.0 m
Title:EMSO Ligure Ouest : Data MII capteur MICROCAT
DateTime_Computer,Latitude,Longitude,Temperature,Conductivity,Pressure,DateTime_Instrument
DateTime_Computer,Latitude,Longitude,degC,S m-1,dbar,DateTime_Instrument
2024-04-03T00:00:35Z,42.805,6.029,13.3050,4.60160,2470.987,2024-4-03T02:03:14Z
2024-04-03T00:03:38Z,42.805,6.029,13.3059,4.60167,2470.973,2024-4-03T02:06:18Z
2024-04-03T00:06:42Z,42.805,6.029,13.3058,4.60167,2471.01,2024-4-03T02:09:21Z
2024-04-03T00:09:45Z,42.805,6.029,13.3053,4.60157,2470.973,2024-4-03T02:12:24Z
2024-04-03T00:12:48Z,42.805,6.029,13.3052,4.60170,2471.01,2024-4-03T02:15:27Z
2024-04-03T00:15:51Z,42.805,6.029,13.3052,4.60171,2470.997,2024-4-03T02:18:30Z
2024-04-03T00:18:54Z,42.805,6.029,13.3051,4.60165,2470.973,2024-4-03T02:21:33Z
2024-04-03T00:21:57Z,42.805,6.029,13.3048,4.60162,2470.997,2024-4-03T02:24:36Z
2024-04-03T00:25:00Z,42.805,6.029,13.3055,4.60178,2471.01,2024-4-03T02:27:39Z
2024-04-03T00:28:03Z,42.805,6.029,13.3051,4.60157,2470.997,2024-4-03T02:30:42Z
2024-04-03T00:31:06Z,42.805,6.029,13.3047,4.60167,2471.034,2024-4-03T02:33:45Z
2024-04-03T00:34:09Z,42.805,6.029,13.3056,4.60155,2471.01,2024-4-03T02:36:48Z
2024-04-03T00:37:12Z,42.805,6.029,13.3059,4.60162,2470.997,2024-4-03T02:39:51Z
2024-04-03T00:40:15Z,42.805,6.029,13.3051,4.60151,2470.997,2024-4-03T02:42:54Z
2024-04-03T00:43:18Z,42.805,6.029,13.3054,4.60166,2471.043,2024-4-03T02:45:58Z
2024-04-03T00:46:22Z,42.805,6.029,13.3048,4.60156,2470.973,2024-4-03T02:49:01Z
2024-04-03T00:49:25Z,42.805,6.029,13.3046,4.60163,2470.973,2024-4-03T02:52:04Z
2024-04-03T00:52:28Z,42.805,6.029,13.3058,4.60157,2471.01,2024-4-03T02:55:07Z
2024-04-03T00:55:31Z,42.805,6.029,13.3047,4.60156,2471.02,2024-4-03T02:58:10Z
2024-04-03T00:58:34Z,42.805,6.029,13.3044,4.60154,2470.997,2024-4-03T03:01:13Z
2024-04-03T01:01:37Z,42.805,6.029,13.3054,4.60151,2471.02,2024-4-03T03:04:16Z
2024-04-03T01:04:40Z,42.805,6.029,13.3051,4.60155,2471.02,2024-4-03T03:07:19Z
2024-04-03T01:07:43Z,42.805,6.029,13.3043,4.60152,2471.034,2024-4-03T03:10:22Z
2024-04-03T01:10:46Z,42.805,6.029,13.3047,4.60157,2470.997,2024-4-03T03:13:25Z
2024-04-03T01:13:49Z,42.805,6.029,13.3052,4.60174,2471.01,2024-4-03T03:16:28Z
2024-04-03T01:16:52Z,42.805,6.029,13.3051,4.60164,2471.043,2024-4-03T03:19:31Z
2024-04-03T01:19:55Z,42.805,6.029,13.3051,4.60152,2470.997,2024-4-03T03:22:34Z
2024-04-03T01:22:58Z,42.805,6.029,13.3048,4.60152,2471.02,2024-4-03T03:25:37Z
2024-04-03T01:26:02Z,42.805,6.029,13.3049,4.60165,2471.043,2024-4-03T03:28:41Z
2024-04-03T01:29:05Z,42.805,6.029,13.3047,4.60158,2471.043,2024-4-03T03:31:44Z
2024-04-03T01:32:08Z,42.805,6.029,13.3054,4.60156,2471.057,2024-4-03T03:34:47Z
2024-04-03T01:35:11Z,42.805,6.029,13.3048,4.60164,2471.034,2024-4-03T03:37:50Z
2024-04-03T01:38:14Z,42.805,6.029,13.3048,4.60150,2471.043,2024-4-03T03:40:53Z
2024-04-03T01:41:17Z,42.805,6.029,13.3049,4.60150,2471.02,2024-4-03T03:43:56Z
2024-04-03T01:44:20Z,42.805,6.029,13.3044,4.60152,2471.02,2024-4-03T03:46:59Z
2024-04-03T01:47:23Z,42.805,6.029,13.3054,4.60158,2471.034,2024-4-03T03:50:02Z
2024-04-03T01:50:26Z,42.805,6.029,13.3053,4.60160,2471.067,2024-4-03T03:53:05Z
2024-04-03T01:53:29Z,42.805,6.029,13.3048,4.60148,2471.034,2024-4-03T03:56:08Z
2024-04-03T01:56:32Z,42.805,6.029,13.3051,4.60154,2471.02,2024-4-03T03:59:11Z
2024-04-03T01:59:35Z,42.805,6.029,13.3047,4.60152,2471.057,2024-4-03T04:02:14Z
2024-04-03T02:02:38Z,42.805,6.029,13.3055,4.60160,2471.067,2024-4-03T04:05:17Z
2024-04-03T02:05:41Z,42.805,6.029,13.3049,4.60152,2471.057,2024-4-03T04:08:21Z
2024-04-03T02:08:45Z,42.805,6.029,13.3053,4.60162,2471.067,2024-4-03T04:11:24Z
2024-04-03T02:11:48Z,42.805,6.029,13.3043,4.60148,2471.057,2024-4-03T04:14:27Z
2024-04-03T02:14:51Z,42.805,6.029,13.3042,4.60150,2471.043,2024-4-03T04:17:30Z
2024-04-03T02:17:54Z,42.805,6.029,13.3046,4.60152,2471.02,2024-4-03T04:20:33Z
2024-04-03T02:20:57Z,42.805,6.029,13.3049,4.60149,2471.043,2024-4-03T04:23:36Z
2024-04-03T02:24:00Z,42.805,6.029,13.3051,4.60155,2471.034,2024-4-03T04:26:39Z
2024-04-03T02:27:03Z,42.805,6.029,13.3052,4.60166,2471.043,2024-4-03T04:29:42Z
2024-04-03T02:30:06Z,42.805,6.029,13.3050,4.60147,2471.043,2024-4-03T04:32:45Z
2024-04-03T02:33:09Z,42.805,6.029,13.3053,4.60155,2471.02,2024-4-03T04:35:48Z
2024-04-03T02:36:12Z,42.805,6.029,13.3051,4.60154,2471.02,2024-4-03T04:38:51Z
2024-04-03T02:39:15Z,42.805,6.029,13.3050,4.60157,2471.057,2024-4-03T04:41:54Z
2024-04-03T02:42:18Z,42.805,6.029,13.3049,4.60160,2471.043,2024-4-03T04:44:57Z
2024-04-03T02:45:21Z,42.805,6.029,13.3051,4.60151,2471.057,2024-4-03T04:48:01Z
2024-04-03T02:48:25Z,42.805,6.029,13.3050,4.60155,2471.02,2024-4-03T04:51:04Z
2024-04-03T02:51:28Z,42.805,6.029,13.3052,4.60158,2471.043,2024-4-03T04:54:07Z
2024-04-03T02:54:31Z,42.805,6.029,13.3048,4.60154,2471.043,2024-4-03T04:57:10Z
2024-04-03T02:57:34Z,42.805,6.029,13.3053,4.60155,2471.081,2024-4-03T05:00:13Z
2024-04-03T03:00:37Z,42.805,6.029,13.3053,4.60157,2471.043,2024-4-03T05:03:16Z
2024-04-03T03:03:40Z,42.805,6.029,13.3053,4.60152,2471.057,2024-4-03T05:06:19Z
2024-04-03T03:06:43Z,42.805,6.029,13.3043,4.60154,2471.034,2024-4-03T05:09:22Z
2024-04-03T03:09:46Z,42.805,6.029,13.3050,4.60162,2471.043,2024-4-03T05:12:25Z
2024-04-03T03:12:49Z,42.805,6.029,13.3043,4.60151,2471.043,2024-4-03T05:15:28Z
2024-04-03T03:15:52Z,42.805,6.029,13.3047,4.60154,2471.043,2024-4-03T05:18:31Z
2024-04-03T03:18:55Z,42.805,6.029,13.3047,4.60155,2471.043,2024-4-03T05:21:34Z
2024-04-03T03:21:58Z,42.805,6.029,13.3048,4.60160,2471.057,2024-4-03T05:24:37Z
2024-04-03T03:25:01Z,42.805,6.029,13.3053,4.60157,2471.02,2024-4-03T05:27:41Z
2024-04-03T03:28:05Z,42.805,6.029,13.3053,4.60150,2471.081,2024-4-03T05:30:44Z
2024-04-03T03:31:08Z,42.805,6.029,13.3046,4.60145,2471.034,2024-4-03T05:33:47Z
2024-04-03T03:34:11Z,42.805,6.029,13.3050,4.60150,2471.02,2024-4-03T05:36:50Z
2024-04-03T03:37:14Z,42.805,6.029,13.3046,4.60148,2471.034,2024-4-03T05:39:53Z
2024-04-03T03:40:17Z,42.805,6.029,13.3047,4.60146,2470.997,2024-4-03T05:42:56Z
2024-04-03T03:43:20Z,42.805,6.029,13.3048,4.60150,2470.997,2024-4-03T05:45:59Z
2024-04-03T03:46:23Z,42.805,6.029,13.3049,4.60149,2471.067,2024-4-03T05:49:02Z
2024-04-03T03:49:26Z,42.805,6.029,13.3054,4.60154,2471.02,2024-4-03T05:52:05Z
2024-04-03T03:52:29Z,42.805,6.029,13.3053,4.60155,2471.02,2024-4-03T05:55:08Z
2024-04-03T03:55:32Z,42.805,6.029,13.3047,4.60145,2471.043,2024-4-03T05:58:11Z
2024-04-03T03:58:35Z,42.805,6.029,13.3048,4.60156,2471.043,2024-4-03T06:01:14Z
2024-04-03T04:01:38Z,42.805,6.029,13.3048,4.60146,2471.043,2024-4-03T06:04:17Z
2024-04-03T04:04:41Z,42.805,6.029,13.3050,4.60150,2471.043,2024-4-03T06:07:20Z
2024-04-03T04:07:44Z,42.805,6.029,13.3050,4.60155,2471.081,2024-4-03T06:10:24Z
2024-04-03T04:10:48Z,42.805,6.029,13.3047,4.60150,2471.057,2024-4-03T06:13:27Z
2024-04-03T04:13:51Z,42.805,6.029,13.3045,4.60150,2471.02,2024-4-03T06:16:30Z
2024-04-03T04:16:54Z,42.805,6.029,13.3047,4.60141,2471.057,2024-4-03T06:19:33Z
2024-04-03T04:19:57Z,42.805,6.029,13.3046,4.60152,2471.02,2024-4-03T06:22:36Z
2024-04-03T04:23:00Z,42.805,6.029,13.3051,4.60150,2471.02,2024-4-03T06:25:39Z
2024-04-03T04:26:03Z,42.805,6.029,13.3049,4.60145,2471.043,2024-4-03T06:28:42Z
2024-04-03T04:29:06Z,42.805,6.029,13.3049,4.60150,2471.057,2024-4-03T06:31:45Z
2024-04-03T04:32:09Z,42.805,6.029,13.3046,4.60142,2471.02,2024-4-03T06:34:48Z
2024-04-03T04:35:12Z,42.805,6.029,13.3052,4.60155,2471.02,2024-4-03T06:37:51Z
2024-04-03T04:38:15Z,42.805,6.029,13.3049,4.60148,2471.034,2024-4-03T06:40:54Z
2024-04-03T04:41:18Z,42.805,6.029,13.3052,4.60143,2471.057,2024-4-03T06:43:57Z
2024-04-03T04:44:21Z,42.805,6.029,13.3046,4.60149,2471.043,2024-4-03T06:47:01Z
2024-04-03T04:47:24Z,42.805,6.029,13.3051,4.60145,2471.034,2024-4-03T06:50:04Z
2024-04-03T04:50:28Z,42.805,6.029,13.3049,4.60145,2471.034,2024-4-03T06:53:07Z
2024-04-03T04:53:31Z,42.805,6.029,13.3046,4.60139,2471.02,2024-4-03T06:56:10Z
2024-04-03T04:56:34Z,42.805,6.029,13.3049,4.60140,2471.043,2024-4-03T06:59:13Z
2024-04-03T04:59:37Z,42.805,6.029,13.3050,4.60148,2471.057,2024-4-03T07:02:16Z
2024-04-03T05:02:40Z,42.805,6.029,13.3043,4.60140,2471.057,2024-4-03T07:05:19Z
2024-04-03T05:05:43Z,42.805,6.029,13.3046,4.60149,2471.02,2024-4-03T07:08:22Z
2024-04-03T05:08:46Z,42.805,6.029,13.3046,4.60145,2470.997,2024-4-03T07:11:25Z
2024-04-03T05:11:49Z,42.805,6.029,13.3046,4.60144,2471.034,2024-4-03T07:14:28Z
2024-04-03T05:14:52Z,42.805,6.029,13.3043,4.60141,2470.997,2024-4-03T07:17:31Z
2024-04-03T05:17:55Z,42.805,6.029,13.3045,4.60137,2471.034,2024-4-03T07:20:34Z
2024-04-03T05:20:58Z,42.805,6.029,13.3044,4.60145,2471.007,2024-4-03T07:23:37Z
2024-04-03T05:24:01Z,42.805,6.029,13.3043,4.60149,2471.034,2024-4-03T07:26:40Z
2024-04-03T05:27:04Z,42.805,6.029,13.3044,4.60141,2471.043,2024-4-03T07:29:44Z
2024-04-03T05:30:08Z,42.805,6.029,13.3046,4.60145,2471.034,2024-4-03T07:32:47Z
2024-04-03T05:33:11Z,42.805,6.029,13.3045,4.60135,2471.057,2024-4-03T07:35:50Z
2024-04-03T05:36:14Z,42.805,6.029,13.3046,4.60140,2470.997,2024-4-03T07:38:53Z
2024-04-03T05:39:17Z,42.805,6.029,13.3044,4.60137,2471.02,2024-4-03T07:41:56Z
2024-04-03T05:42:20Z,42.805,6.029,13.3040,4.60135,2471.02,2024-4-03T07:44:59Z
2024-04-03T05:45:23Z,42.805,6.029,13.3046,4.60135,2470.997,2024-4-03T07:48:02Z
2024-04-03T05:48:26Z,42.805,6.029,13.3045,4.60137,2470.997,2024-4-03T07:51:05Z
2024-04-03T05:51:29Z,42.805,6.029,13.3042,4.60138,2471.03,2024-4-03T07:54:08Z
2024-04-03T05:54:32Z,42.805,6.029,13.3043,4.60140,2471.02,2024-4-03T07:57:11Z
2024-04-03T05:57:35Z,42.805,6.029,13.3045,4.60139,2470.997,2024-4-03T08:00:14Z
2024-04-03T06:00:38Z,42.805,6.029,13.3042,4.60138,2471.043,2024-4-03T08:03:17Z
2024-04-03T06:03:41Z,42.805,6.029,13.3043,4.60138,2471.043,2024-4-03T08:06:20Z
2024-04-03T06:06:44Z,42.805,6.029,13.3045,4.60137,2471.02,2024-4-03T08:09:23Z
2024-04-03T06:09:47Z,42.805,6.029,13.3041,4.60138,2471.007,2024-4-03T08:12:27Z
2024-04-03T06:12:51Z,42.805,6.029,13.3042,4.60140,2471.01,2024-4-03T08:15:30Z
2024-04-03T06:15:54Z,42.805,6.029,13.3043,4.60137,2471.043,2024-4-03T08:18:33Z
2024-04-03T06:18:57Z,42.805,6.029,13.3048,4.60138,2471.043,2024-4-03T08:21:36Z
2024-04-03T06:22:00Z,42.805,6.029,13.3043,4.60141,2471.02,2024-4-03T08:24:39Z
2024-04-03T06:25:03Z,42.805,6.029,13.3047,4.60137,2470.997,2024-4-03T08:27:42Z
2024-04-03T06:28:06Z,42.805,6.029,13.3043,4.60137,2471.01,2024-4-03T08:30:45Z
2024-04-03T06:31:09Z,42.805,6.029,13.3042,4.60142,2470.997,2024-4-03T08:33:48Z
2024-04-03T06:34:12Z,42.805,6.029,13.3042,4.60135,2470.973,2024-4-03T08:36:51Z
2024-04-03T06:37:15Z,42.805,6.029,13.3047,4.60139,2470.973,2024-4-03T08:39:54Z
2024-04-03T06:40:18Z,42.805,6.029,13.3041,4.60137,2471.01,2024-4-03T08:42:57Z
2024-04-03T06:43:21Z,42.805,6.029,13.3047,4.60139,2471.01,2024-4-03T08:46:00Z
2024-04-03T06:46:24Z,42.805,6.029,13.3041,4.60140,2471.034,2024-4-03T08:49:04Z
2024-04-03T06:49:28Z,42.805,6.029,13.3039,4.60135,2470.987,2024-4-03T08:52:07Z
2024-04-03T06:52:31Z,42.805,6.029,13.3040,4.60137,2471.02,2024-4-03T08:55:10Z
2024-04-03T06:55:34Z,42.805,6.029,13.3041,4.60140,2470.997,2024-4-03T08:58:13Z
2024-04-03T06:58:37Z,42.805,6.029,13.3046,4.60147,2470.964,2024-4-03T09:01:16Z
2024-04-03T07:01:40Z,42.805,6.029,13.3050,4.60141,2470.987,2024-4-03T09:04:19Z
2024-04-03T07:04:43Z,42.805,6.029,13.3041,4.60132,2471.01,2024-4-03T09:07:22Z
2024-04-03T07:07:46Z,42.805,6.029,13.3043,4.60135,2471.01,2024-4-03T09:10:25Z
2024-04-03T07:10:49Z,42.805,6.029,13.3042,4.60139,2470.997,2024-4-03T09:13:28Z
2024-04-03T07:13:52Z,42.805,6.029,13.3043,4.60132,2470.997,2024-4-03T09:16:31Z
2024-04-03T07:16:55Z,42.805,6.029,13.3039,4.60139,2470.95,2024-4-03T09:19:34Z
2024-04-03T07:19:58Z,42.805,6.029,13.3044,4.60136,2470.997,2024-4-03T09:22:37Z
2024-04-03T07:23:01Z,42.805,6.029,13.3044,4.60135,2471.01,2024-4-03T09:25:40Z
2024-04-03T07:26:04Z,42.805,6.029,13.3043,4.60135,2470.973,2024-4-03T09:28:43Z
2024-04-03T07:29:07Z,42.805,6.029,13.3045,4.60135,2471.01,2024-4-03T09:31:47Z
2024-04-03T07:32:11Z,42.805,6.029,13.3045,4.60141,2471.01,2024-4-03T09:34:50Z
2024-04-03T07:35:14Z,42.805,6.029,13.3041,4.60137,2471.02,2024-4-03T09:37:53Z
2024-04-03T07:38:17Z,42.805,6.029,13.3046,4.60135,2470.997,2024-4-03T09:40:56Z
2024-04-03T07:41:20Z,42.805,6.029,13.3046,4.60140,2470.936,2024-4-03T09:43:59Z
2024-04-03T07:44:23Z,42.805,6.029,13.3042,4.60132,2470.973,2024-4-03T09:47:02Z
2024-04-03T07:47:26Z,42.805,6.029,13.3043,4.60137,2470.95,2024-4-03T09:50:05Z
2024-04-03T07:50:29Z,42.805,6.029,13.3045,4.60138,2470.997,2024-4-03T09:53:08Z
2024-04-03T07:53:32Z,42.805,6.029,13.3043,4.60132,2470.964,2024-4-03T09:56:11Z
2024-04-03T07:56:35Z,42.805,6.029,13.3043,4.60131,2470.997,2024-4-03T09:59:14Z
2024-04-03T07:59:38Z,42.805,6.029,13.3043,4.60138,2470.997,2024-4-03T10:02:17Z
2024-04-03T08:02:41Z,42.805,6.029,13.3041,4.60140,2471.001,2024-4-03T10:05:20Z
2024-04-03T08:05:44Z,42.805,6.029,13.3046,4.60147,2470.964,2024-4-03T10:08:23Z
2024-04-03T08:08:47Z,42.805,6.029,13.3041,4.60145,2470.997,2024-4-03T10:11:27Z
2024-04-03T08:11:51Z,42.805,6.029,13.3042,4.60137,2470.973,2024-4-03T10:14:30Z
2024-04-03T08:14:54Z,42.805,6.029,13.3043,4.60140,2470.95,2024-4-03T10:17:33Z
2024-04-03T08:17:57Z,42.805,6.029,13.3044,4.60138,2470.997,2024-4-03T10:20:36Z
2024-04-03T08:21:00Z,42.805,6.029,13.3044,4.60141,2470.973,2024-4-03T10:23:39Z
2024-04-03T08:24:03Z,42.805,6.029,13.3039,4.60135,2470.997,2024-4-03T10:26:42Z
2024-04-03T08:27:06Z,42.805,6.029,13.3045,4.60137,2470.95,2024-4-03T10:29:45Z
2024-04-03T08:30:09Z,42.805,6.029,13.3043,4.60140,2470.997,2024-4-03T10:32:48Z
2024-04-03T08:33:12Z,42.805,6.029,13.3041,4.60135,2471.01,2024-4-03T10:35:51Z
2024-04-03T08:36:15Z,42.805,6.029,13.3044,4.60135,2470.973,2024-4-03T10:38:54Z
2024-04-03T08:39:18Z,42.805,6.029,13.3044,4.60138,2471.02,2024-4-03T10:41:57Z
2024-04-03T08:42:21Z,42.805,6.029,13.3043,4.60155,2470.927,2024-4-03T10:45:00Z
2024-04-03T08:45:24Z,42.805,6.029,13.3046,4.60148,2470.973,2024-4-03T10:48:04Z
2024-04-03T08:48:28Z,42.805,6.029,13.3047,4.60157,2470.997,2024-4-03T10:51:07Z
2024-04-03T08:51:31Z,42.805,6.029,13.3045,4.60143,2470.973,2024-4-03T10:54:10Z
2024-04-03T08:54:34Z,42.805,6.029,13.3044,4.60145,2470.973,2024-4-03T10:57:13Z
2024-04-03T08:57:37Z,42.805,6.029,13.3046,4.60137,2470.973,2024-4-03T11:00:16Z
2024-04-03T09:00:40Z,42.805,6.029,13.3041,4.60137,2470.997,2024-4-03T11:03:19Z
2024-04-03T09:03:43Z,42.805,6.029,13.3045,4.60137,2470.997,2024-4-03T11:06:22Z
2024-04-03T09:06:46Z,42.805,6.029,13.3043,4.60134,2470.973,2024-4-03T11:09:25Z
2024-04-03T09:09:49Z,42.805,6.029,13.3046,4.60133,2470.987,2024-4-03T11:12:28Z
2024-04-03T09:12:52Z,42.805,6.029,13.3041,4.60137,2470.997,2024-4-03T11:15:31Z
2024-04-03T09:15:55Z,42.805,6.029,13.3042,4.60137,2470.973,2024-4-03T11:18:34Z
2024-04-03T09:18:58Z,42.805,6.029,13.3042,4.60143,2470.964,2024-4-03T11:21:37Z
2024-04-03T09:22:01Z,42.805,6.029,13.3043,4.60145,2470.95,2024-4-03T11:24:40Z
2024-04-03T09:25:04Z,42.805,6.029,13.3043,4.60149,2470.95,2024-4-03T11:27:44Z
2024-04-03T09:28:08Z,42.805,6.029,13.3048,4.60140,2470.973,2024-4-03T11:30:47Z
2024-04-03T09:31:11Z,42.805,6.029,13.3042,4.60150,2470.973,2024-4-03T11:33:50Z
2024-04-03T09:34:14Z,42.805,6.029,13.3044,4.60152,2470.983,2024-4-03T11:36:53Z
2024-04-03T09:37:17Z,42.805,6.029,13.3046,4.60156,2470.973,2024-4-03T11:39:56Z
2024-04-03T09:40:20Z,42.805,6.029,13.3039,4.60139,2470.95,2024-4-03T11:42:59Z
2024-04-03T09:43:23Z,42.805,6.029,13.3046,4.60145,2470.94,2024-4-03T11:46:02Z
2024-04-03T09:46:26Z,42.805,6.029,13.3043,4.60152,2470.95,2024-4-03T11:49:05Z
2024-04-03T09:49:29Z,42.805,6.029,13.3043,4.60142,2470.95,2024-4-03T11:52:08Z
2024-04-03T09:52:32Z,42.805,6.029,13.3047,4.60142,2470.973,2024-4-03T11:55:11Z
2024-04-03T09:55:35Z,42.805,6.029,13.3043,4.60143,2470.927,2024-4-03T11:58:14Z
2024-04-03T09:58:38Z,42.805,6.029,13.3043,4.60141,2470.973,2024-4-03T12:01:17Z
2024-04-03T10:01:41Z,42.805,6.029,13.3042,4.60145,2470.964,2024-4-03T12:04:21Z
2024-04-03T10:04:45Z,42.805,6.029,13.3051,4.60155,2470.95,2024-4-03T12:07:24Z
2024-04-03T10:07:48Z,42.805,6.029,13.3047,4.60145,2470.964,2024-4-03T12:10:27Z
2024-04-03T10:10:51Z,42.805,6.029,13.3046,4.60142,2470.973,2024-4-03T12:13:30Z
2024-04-03T10:13:54Z,42.805,6.029,13.3045,4.60138,2470.973,2024-4-03T12:16:33Z
2024-04-03T10:16:57Z,42.805,6.029,13.3041,4.60140,2470.913,2024-4-03T12:19:36Z
2024-04-03T10:20:00Z,42.805,6.029,13.3049,4.60146,2470.95,2024-4-03T12:22:39Z
2024-04-03T10:23:03Z,42.805,6.029,13.3048,4.60146,2470.94,2024-4-03T12:25:42Z
2024-04-03T10:26:06Z,42.805,6.029,13.3046,4.60145,2470.964,2024-4-03T12:28:45Z
2024-04-03T10:29:09Z,42.805,6.029,13.3051,4.60150,2470.987,2024-4-03T12:31:48Z
2024-04-03T10:32:12Z,42.805,6.029,13.3054,4.60166,2470.917,2024-4-03T12:34:51Z
2024-04-03T10:35:15Z,42.805,6.029,13.3046,4.60147,2470.987,2024-4-03T12:37:54Z
2024-04-03T10:38:18Z,42.805,6.029,13.3048,4.60152,2470.964,2024-4-03T12:40:58Z
2024-04-03T10:41:22Z,42.805,6.029,13.3046,4.60148,2470.927,2024-4-03T12:44:01Z
2024-04-03T10:44:25Z,42.805,6.029,13.3052,4.60150,2470.95,2024-4-03T12:47:04Z
2024-04-03T10:47:28Z,42.805,6.029,13.3044,4.60147,2470.964,2024-4-03T12:50:07Z
2024-04-03T10:50:31Z,42.805,6.029,13.3047,4.60164,2470.973,2024-4-03T12:53:10Z
2024-04-03T10:53:34Z,42.805,6.029,13.3043,4.60146,2470.987,2024-4-03T12:56:13Z
2024-04-03T10:56:37Z,42.805,6.029,13.3047,4.60144,2470.973,2024-4-03T12:59:16Z
2024-04-03T10:59:40Z,42.805,6.029,13.3051,4.60153,2470.927,2024-4-03T13:02:19Z
2024-04-03T11:02:43Z,42.805,6.029,13.3047,4.60152,2470.95,2024-4-03T13:05:22Z
2024-04-03T11:05:46Z,42.805,6.029,13.3049,4.60155,2470.987,2024-4-03T13:08:25Z
2024-04-03T11:08:49Z,42.805,6.029,13.3044,4.60150,2470.94,2024-4-03T13:11:28Z
2024-04-03T11:11:52Z,42.805,6.029,13.3052,4.60169,2470.964,2024-4-03T13:14:31Z
2024-04-03T11:14:55Z,42.805,6.029,13.3044,4.60154,2470.987,2024-4-03T13:17:34Z
2024-04-03T11:17:58Z,42.805,6.029,13.3056,4.60150,2470.95,2024-4-03T13:20:38Z
2024-04-03T11:21:02Z,42.805,6.029,13.3058,4.60162,2470.927,2024-4-03T13:23:41Z
2024-04-03T11:24:05Z,42.805,6.029,13.3045,4.60154,2470.964,2024-4-03T13:26:44Z
2024-04-03T11:27:08Z,42.805,6.029,13.3048,4.60160,2470.95,2024-4-03T13:29:47Z
2024-04-03T11:30:11Z,42.805,6.029,13.3052,4.60174,2470.94,2024-4-03T13:32:50Z
2024-04-03T11:33:14Z,42.805,6.029,13.3052,4.60157,2470.964,2024-4-03T13:35:53Z
2024-04-03T11:36:17Z,42.805,6.029,13.3054,4.60161,2470.927,2024-4-03T13:38:56Z
2024-04-03T11:39:20Z,42.805,6.029,13.3051,4.60165,2470.95,2024-4-03T13:41:59Z
2024-04-03T11:42:23Z,42.805,6.029,13.3048,4.60156,2470.987,2024-4-03T13:45:02Z
2024-04-03T11:45:26Z,42.805,6.029,13.3046,4.60167,2470.964,2024-4-03T13:48:05Z
2024-04-03T11:48:29Z,42.805,6.029,13.3056,4.60167,2470.964,2024-4-03T13:51:08Z
2024-04-03T11:51:32Z,42.805,6.029,13.3048,4.60157,2471.01,2024-4-03T13:54:11Z
2024-04-03T11:54:35Z,42.805,6.029,13.3046,4.60162,2470.94,2024-4-03T13:57:15Z
2024-04-03T11:57:39Z,42.805,6.029,13.3057,4.60167,2470.95,2024-4-03T14:00:18Z
2024-04-03T12:00:42Z,42.805,6.029,13.3050,4.60173,2470.95,2024-4-03T14:03:21Z
2024-04-03T12:03:45Z,42.805,6.029,13.3056,4.60167,2470.964,2024-4-03T14:06:24Z
2024-04-03T12:06:48Z,42.805,6.029,13.3051,4.60152,2470.973,2024-4-03T14:09:27Z
2024-04-03T12:09:51Z,42.805,6.029,13.3048,4.60148,2470.95,2024-4-03T14:12:30Z
2024-04-03T12:12:54Z,42.805,6.029,13.3045,4.60161,2470.964,2024-4-03T14:15:33Z
2024-04-03T12:15:57Z,42.805,6.029,13.3054,4.60169,2470.973,2024-4-03T14:18:36Z
2024-04-03T12:19:00Z,42.805,6.029,13.3060,4.60175,2470.95,2024-4-03T14:21:39Z
2024-04-03T12:22:03Z,42.805,6.029,13.3054,4.60170,2470.95,2024-4-03T14:24:42Z
2024-04-03T12:25:06Z,42.805,6.029,13.3054,4.60175,2470.927,2024-4-03T14:27:45Z
2024-04-03T12:28:09Z,42.805,6.029,13.3061,4.60159,2470.95,2024-4-03T14:30:48Z
2024-04-03T12:31:12Z,42.805,6.029,13.3052,4.60172,2470.997,2024-4-03T14:33:52Z
2024-04-03T12:34:15Z,42.805,6.029,13.3058,4.60168,2470.987,2024-4-03T14:36:55Z
2024-04-03T12:37:19Z,42.805,6.029,13.3044,4.60171,2471.01,2024-4-03T14:39:58Z
2024-04-03T12:40:22Z,42.805,6.029,13.3048,4.60175,2470.95,2024-4-03T14:43:01Z
2024-04-03T12:43:25Z,42.805,6.029,13.3044,4.60154,2470.997,2024-4-03T14:46:04Z
2024-04-03T12:46:28Z,42.805,6.029,13.3050,4.60173,2470.973,2024-4-03T14:49:07Z
2024-04-03T12:49:31Z,42.805,6.029,13.3054,4.60170,2470.973,2024-4-03T14:52:10Z
2024-04-03T12:52:34Z,42.805,6.029,13.3046,4.60173,2470.973,2024-4-03T14:55:13Z
2024-04-03T12:55:37Z,42.805,6.029,13.3054,4.60169,2470.973,2024-4-03T14:58:16Z
2024-04-03T12:58:40Z,42.805,6.029,13.3054,4.60187,2470.964,2024-4-03T15:01:19Z
2024-04-03T13:01:43Z,42.805,6.029,13.3064,4.60181,2470.964,2024-4-03T15:04:22Z
2024-04-03T13:04:46Z,42.805,6.029,13.3057,4.60178,2470.973,2024-4-03T15:07:25Z
2024-04-03T13:07:49Z,42.805,6.029,13.3057,4.60151,2470.927,2024-4-03T15:10:28Z
2024-04-03T13:10:52Z,42.805,6.029,13.3056,4.60158,2470.95,2024-4-03T15:13:32Z
2024-04-03T13:13:56Z,42.805,6.029,13.3050,4.60163,2471.01,2024-4-03T15:16:35Z
2024-04-03T13:16:59Z,42.805,6.029,13.3048,4.60156,2470.94,2024-4-03T15:19:38Z
2024-04-03T13:20:02Z,42.805,6.029,13.3056,4.60194,2470.95,2024-4-03T15:22:41Z
2024-04-03T13:23:05Z,42.805,6.029,13.3058,4.60185,2470.973,2024-4-03T15:25:44Z
2024-04-03T13:26:08Z,42.805,6.029,13.3054,4.60161,2470.997,2024-4-03T15:28:47Z
2024-04-03T13:29:11Z,42.805,6.029,13.3053,4.60169,2470.987,2024-4-03T15:31:50Z
2024-04-03T13:32:14Z,42.805,6.029,13.3056,4.60159,2470.987,2024-4-03T15:34:53Z
2024-04-03T13:35:17Z,42.805,6.029,13.3054,4.60188,2470.95,2024-4-03T15:37:56Z
2024-04-03T13:38:20Z,42.805,6.029,13.3070,4.60187,2470.95,2024-4-03T15:40:59Z
2024-04-03T13:41:23Z,42.805,6.029,13.3066,4.60167,2471.01,2024-4-03T15:44:02Z
2024-04-03T13:44:26Z,42.805,6.029,13.3056,4.60160,2470.973,2024-4-03T15:47:05Z
2024-04-03T13:47:29Z,42.805,6.029,13.3068,4.60161,2470.973,2024-4-03T15:50:09Z
2024-04-03T13:50:32Z,42.805,6.029,13.3055,4.60149,2470.95,2024-4-03T15:53:12Z
2024-04-03T13:53:36Z,42.805,6.029,13.3044,4.60136,2470.95,2024-4-03T15:56:15Z
2024-04-03T13:56:39Z,42.805,6.029,13.3056,4.60150,2470.964,2024-4-03T15:59:18Z
2024-04-03T13:59:42Z,42.805,6.029,13.3063,4.60154,2470.997,2024-4-03T16:02:21Z
2024-04-03T14:02:45Z,42.805,6.029,13.3066,4.60156,2470.997,2024-4-03T16:05:24Z
2024-04-03T14:05:48Z,42.805,6.029,13.3069,4.60157,2470.987,2024-4-03T16:08:27Z
2024-04-03T14:08:51Z,42.805,6.029,13.3047,4.60133,2470.973,2024-4-03T16:11:30Z
2024-04-03T14:11:54Z,42.805,6.029,13.3048,4.60137,2470.973,2024-4-03T16:14:33Z
2024-04-03T14:14:57Z,42.805,6.029,13.3051,4.60142,2470.997,2024-4-03T16:17:36Z
2024-04-03T14:18:00Z,42.805,6.029,13.3043,4.60132,2470.95,2024-4-03T16:20:39Z
2024-04-03T14:21:03Z,42.805,6.029,13.3049,4.60129,2470.997,2024-4-03T16:23:42Z
2024-04-03T14:24:06Z,42.805,6.029,13.3044,4.60133,2470.987,2024-4-03T16:26:46Z
2024-04-03T14:27:09Z,42.805,6.029,13.3041,4.60131,2470.973,2024-4-03T16:29:49Z
2024-04-03T14:30:13Z,42.805,6.029,13.3043,4.60130,2470.95,2024-4-03T16:32:52Z
2024-04-03T14:33:16Z,42.805,6.029,13.3043,4.60131,2470.973,2024-4-03T16:35:55Z
2024-04-03T14:36:19Z,42.805,6.029,13.3044,4.60132,2470.973,2024-4-03T16:38:58Z
2024-04-03T14:39:22Z,42.805,6.029,13.3043,4.60131,2470.973,2024-4-03T16:42:01Z
2024-04-03T14:42:25Z,42.805,6.029,13.3046,4.60134,2470.95,2024-4-03T16:45:04Z
2024-04-03T14:45:28Z,42.805,6.029,13.3045,4.60137,2470.987,2024-4-03T16:48:07Z
2024-04-03T14:48:31Z,42.805,6.029,13.3049,4.60134,2470.95,2024-4-03T16:51:10Z
2024-04-03T14:51:34Z,42.805,6.029,13.3050,4.60137,2470.973,2024-4-03T16:54:13Z
2024-04-03T14:54:37Z,42.805,6.029,13.3047,4.60138,2470.936,2024-4-03T16:57:16Z
2024-04-03T14:57:40Z,42.805,6.029,13.3050,4.60135,2470.95,2024-4-03T17:00:19Z
2024-04-03T15:00:43Z,42.805,6.029,13.3044,4.60134,2470.987,2024-4-03T17:03:22Z
2024-04-03T15:03:46Z,42.805,6.029,13.3044,4.60135,2470.95,2024-4-03T17:06:26Z
2024-04-03T15:06:50Z,42.805,6.029,13.3041,4.60135,2470.973,2024-4-03T17:09:29Z
2024-04-03T15:09:53Z,42.805,6.029,13.3046,4.60135,2470.95,2024-4-03T17:12:32Z
2024-04-03T15:12:56Z,42.805,6.029,13.3050,4.60135,2470.973,2024-4-03T17:15:35Z